Location: Unspecified
(0.0000°N, 0.0000°E)
Time: 15:14:39
(UTC+00:00)

Hubble Space Telescope - Pass Details

Date: 16 April 2021
Orbit: 535 x 539 km, 28.5° (Epoch: 16 April)

Event Time Altitude Azimuth Distance (km) Brightness Sun altitude
Exits shadow 04:26:14 - 347° (NNW) 1,849 3.5 -23.0°
Reaches altitude 10° 04:26:34 10° 351° (N) 1,769 3.4 -22.9°
Maximum altitude 04:29:02 15° 28° (NNE) 1,459 3.4 -22.3°
Drops below altitude 10° 04:31:31 10° 65° (ENE) 1,773 4.5 -21.7°
Sets 04:34:32 0° 88° (E) 2,666 5.8 -21.0°
